Location: Novo Ouro Preto
(19.8840°S, 43.9844°W)
Time: 09:20:53
(UTC+00:00)

Tsikada Rocket - Pass Details

Date: 18 September 2020
Orbit: 957 x 1010 km, 82.9° (Epoch: 21 October)

Event Time Altitude Azimuth Distance (km) Brightness Sun altitude
Rises 21:43:17 0° 3° (N) 3,632 6.9 -13.1°
Reaches altitude 10° 21:45:46 10° 6° (N) 2,697 6.2 -13.6°
Maximum altitude 21:51:53 68° 88° (E) 1,051 3.9 -15.1°
Drops below altitude 10° 21:58:09 10° 169° (S) 2,758 6.3 -16.5°
Sets 22:00:43 0° 171° (S) 3,719 7.0 -17.1°
